Theta_e
319 320 318 317 316 316 315 318 319 318 318 318 319 318 318 317 317 317 316 315 315 316
316 316 316 316 316 318 317 318 317 318 318 318 318 318 318 316 315 316 316 316 315 314
314 315 314 314 313 314 315 316 316 316 316 316 317 317 316 315 315 314 314 315 312 311
311 312 313 312 313 314 314 315 315 315 315 314 314 314 314 313 314 313 312 312 312 312
311 311 311 312 312 313 312 313 314 314 314 314 314 312 311 311 312 311 310 311 309 308
309 309 309 310 311 311 311 311 311 311 311 312 311 311 311 310 310 309 308 307 306 306
306 307 308 309 310 310 311 309 308 309 310 311 311 311 309 308 305 305 306 306 305 304
306 307 307 307 308 309 308 308 308 308 308 308 309 310 305 306 304 305 306 306 305 305
306 305 304 304 304 303 303 304 305 306 309 309 310 304 304 305 306 305 303 302 303 304
302 302 301 301 300 300 299 300 301 303 307 308 307 303 302 303 305 303 302 303 304 302
298 298 298 297 297 297 299 300 298 300 304 305 305 302 300 301 303 303 303 302 302 302
296 296 297 297 297 298 298 296 297 300 302 303 304 301 299 300 301 302 302 302 303 304
293 293 295 296 296 297 294 296 300 301 302 303 303 301 298 299 302 302 303 303 302 301
293 294 295 295 296 296 296 298 299 300 302 303 303 302 298 298 302 302 300 300 301 302
Wind_Speed
9 6 5 6 4 4 3 2 3 5 4 3 4 3 4 3 4 4 4 7 6 5
7 8 6 6 5 3 4 3 4 4 3 3 4 4 5 4 5 4 4 5 5 4
6 6 6 6 4 3 1 1 1 2 3 5 5 5 6 4 4 6 4 5 6 6
6 6 5 4 4 4 3 4 3 3 4 6 7 6 5 5 6 7 6 7 6 7
6 6 5 4 3 3 2 3 4 4 5 5 5 5 6 7 6 8 6 6 4 3
8 7 5 5 4 4 5 6 6 6 7 8 7 7 7 6 5 4 4 5 3 4
6 5 5 6 6 5 4 3 3 4 6 6 8 6 5 3 3 5 5 5 5 5
5 5 6 6 7 7 7 6 6 6 6 7 6 5 5 7 6 7 10 9 9 10
7 7 7 7 7 7 7 7 9 9 8 9 5 8 9 5 7 12 11 11 11 11
10 10 9 9 9 8 8 7 7 10 10 6 6 11 10 10 10 11 12 12 12 13
11 11 9 8 7 7 8 10 8 10 9 9 8 9 10 13 12 12 12 12 13 14
10 10 9 9 10 10 10 9 10 10 10 9 10 10 12 12 11 11 13 13 15 14
8 9 10 10 10 8 6 10 9 10 10 11 12 12 13 14 9 12 11 13 13 18
9 9 9 9 9 9 9 10 10 10 9 10 10 10 15 18 11 8 8 9 12 12
Wind_Direction
51 70 84 94 94 101 110 115 68 57 47 25 11 339 314 302 277 278 281 283 275 281
85 93 96 78 70 43 46 28 21 14 356 315 281 265 251 239 257 271 266 258 260 259
88 82 72 67 69 79 103 104 318 305 308 295 295 287 269 272 271 259 261 263 267 262
64 60 59 54 32 24 10 347 322 277 263 256 256 263 274 259 251 258 251 251 249 254
64 52 39 24 10 358 326 303 284 297 288 285 280 282 280 266 265 256 262 276 287 284
33 27 8 348 329 321 322 323 353 356 334 324 325 312 283 278 282 320 269 269 293 286
6 350 335 327 320 313 299 312 316 300 284 282 271 265 278 328 323 288 292 290 293 288
355 358 356 356 356 357 1 347 323 302 291 282 290 305 342 327 324 321 315 304 288 277
10 10 11 10 1 4 354 346 334 319 304 298 292 303 308 323 310 309 302 294 284 279
12 9 4 359 356 347 338 325 315 306 300 291 297 313 307 310 312 299 287 280 280 278
1 352 348 343 329 319 315 313 310 302 307 307 307 298 302 302 302 290 281 269 272 273
347 334 329 326 321 316 313 312 298 294 292 304 299 290 288 291 298 284 283 278 275 273
327 314 315 314 312 302 282 287 287 295 296 289 290 287 285 294 294 292 289 288 287 283
317 316 314 315 308 308 303 296 291 292 291 289 291 300 298 293 298 282 286 293 293 284